Find Starlink 1202

NORAD ID: 45183 Int'l Des: 2020-012 Owner: SPXS Country: US Constellation: starlink operational
LEOCIRCULAR

Current View

Loading 3D Globe...

About Starlink 1202

Starlink 1202 (NORAD 45183) is a starlink constellation satellite (v1.0) launched Feb 17, 2020 by SPXS of US. It operates in LEO, CIRCULAR orbit with a mass of 260.00 kg.

About Starlink 1202

Description loading...

Upcoming Passes

Passes for default location (London). Set your location on the main map for personalized predictions.

Altitude History

Loading altitude history...

Two-Line Element Set

1 45183U 20012F 26170.58911953 .00042924 00000-0 12199-2 0 9998
2 45183 53.1553 284.6046 0002393 300.3366 59.7400 15.35769959350577
Epoch: Jun 19, 2026 • Age: 22 hours

Current Status

Altitude 464.9 km
Velocity 7.64 km/s
Sub-Earth Point 48.68°N, 115.08°W
Launch Date Feb 17, 2020
Age 6.3 years
Type internet

Technical Details

Classification Payload
Mass 260.00 kg
Dry Mass 248.00 kg
Total Mass 260.00 kg
Length 0.20 m
Diameter 2.80 m
Span 9.00 m
Shape Box + pan
Manufacturer SPXS
Bus Type Starlink
Phase Status In Orbit
Owner/State SPXS/US

Most Searched